Theta_e
308 308 308 308 308 309 309 309 309 309 310 310 310 311 312 312 313 313 317 317 319 323 326 329 330 329 329 329 329 330 331 332 331 331 332 331 331 330 327 326 325 324 324 324 325
308 308 308 308 308 308 308 308 309 309 309 309 310 310 311 312 312 316 318 318 316 319 324 330 329 328 328 328 328 330 331 330 329 329 330 330 330 329 329 327 326 324 324 323 323
307 308 308 308 308 308 308 308 308 308 309 309 309 310 311 311 317 318 320 317 318 316 323 328 329 329 328 328 329 330 330 328 327 326 328 329 328 328 328 327 326 325 323 324 323
303 304 306 307 308 308 308 309 309 308 308 308 309 309 310 311 317 321 318 318 315 314 321 325 327 329 330 330 329 330 329 327 325 325 329 328 328 327 326 326 325 323 322 324 323
308 305 303 303 305 306 308 308 308 308 308 308 308 308 309 315 315 315 318 318 317 314 321 323 326 328 331 330 329 330 329 327 325 326 328 327 327 327 326 324 324 323 322 322 323
308 308 309 308 304 303 304 305 306 307 308 308 308 307 308 313 313 314 315 319 325 321 321 323 326 327 328 329 328 328 329 327 326 327 328 326 327 325 326 324 323 324 323 323 323
309 309 308 307 309 309 307 304 304 304 305 306 308 308 312 313 314 315 314 315 317 323 323 321 323 325 326 328 327 328 328 327 327 327 328 326 327 327 325 325 324 324 324 323 323
307 309 309 308 305 307 309 310 308 305 303 304 306 308 314 313 313 313 316 319 321 320 319 323 321 323 326 326 327 328 328 329 328 328 327 326 328 329 326 325 325 325 325 324 324
306 308 308 309 308 306 306 309 310 309 307 303 304 312 314 315 314 314 314 315 315 321 320 322 323 322 325 327 328 329 329 328 329 329 328 327 328 328 326 325 325 325 325 325 324
304 306 307 307 308 308 305 306 308 309 308 306 312 318 317 315 315 316 315 315 316 319 322 323 324 325 327 328 330 330 330 329 329 330 330 328 328 329 327 326 325 325 326 326 325
304 303 304 305 306 307 307 309 312 317 315 315 315 315 316 315 315 316 316 316 316 317 322 323 326 327 328 328 328 329 330 330 330 330 329 329 329 329 327 326 326 325 326 326 326
301 303 303 304 305 307 307 310 312 311 315 319 318 317 317 317 318 315 319 317 317 319 320 326 327 327 327 327 328 330 330 329 330 330 329 330 329 328 327 326 326 326 326 327 327
295 301 303 303 304 306 309 311 310 310 313 313 314 317 316 317 317 318 318 317 318 320 320 325 327 326 327 328 329 330 330 329 330 330 330 329 329 328 328 327 325 325 326 327 327
303 298 302 303 304 310 311 310 309 309 315 317 317 316 315 316 318 317 318 320 319 320 322 325 326 327 327 328 329 330 329 329 329 330 330 328 329 328 328 327 326 326 326 327 328
304 298 300 303 308 311 310 308 308 310 319 322 320 317 317 317 318 317 319 319 321 320 322 324 326 327 327 328 329 329 328 328 328 329 329 328 329 328 327 326 326 326 326 328 328
303 301 299 304 305 308 310 309 309 317 318 320 321 320 319 318 318 319 317 319 320 322 322 323 324 326 327 328 328 329 328 327 328 328 330 328 329 328 327 326 325 326 327 329 328
303 303 299 305 307 307 309 309 314 316 318 320 321 321 320 319 319 320 319 321 324 322 324 323 324 327 327 328 328 328 328 329 330 331 330 328 328 328 327 325 325 327 328 331 328
303 304 300 302 307 306 308 311 315 316 319 321 321 321 321 321 320 320 320 321 323 323 324 325 325 327 328 329 329 328 328 328 330 331 331 329 329 328 327 325 325 328 331 331 328
303 304 303 303 306 306 308 313 314 316 318 320 320 321 322 322 321 321 321 321 322 325 326 326 327 326 328 328 328 328 328 327 329 329 329 330 330 328 326 325 327 330 330 330 327
304 304 303 303 306 305 307 310 312 313 316 319 320 321 323 323 322 322 322 322 322 322 325 327 327 327 327 328 327 327 327 328 328 330 332 330 329 328 326 326 330 332 331 329 326
303 303 304 304 305 306 307 309 310 311 313 314 318 320 321 323 323 323 322 323 323 322 323 325 328 328 327 329 328 326 327 328 329 329 330 331 330 329 328 327 328 332 331 328 326
301 306 305 305 306 305 306 308 308 310 311 313 313 315 319 322 324 323 323 323 323 323 323 326 328 330 328 328 328 327 327 329 329 330 329 330 330 328 327 327 328 331 331 328 326
303 305 306 305 306 308 307 307 307 309 310 311 313 314 316 319 324 324 324 324 323 323 325 327 329 331 331 329 328 328 327 327 329 330 331 330 330 329 329 327 328 330 331 329 327
302 308 305 305 305 307 308 308 307 307 309 310 312 312 313 317 321 324 324 323 323 322 324 328 330 330 331 331 328 328 326 327 328 331 330 330 329 329 329 328 328 330 330 330 327
303 304 303 306 305 305 305 308 309 308 309 309 311 312 313 318 322 323 324 324 323 322 325 330 332 328 328 328 328 327 327 326 327 328 330 330 329 329 329 329 328 330 331 330 329
302 303 303 304 303 305 305 306 307 308 308 310 310 311 313 316 319 322 322 325 324 322 323 331 332 328 327 326 327 328 327 327 326 327 328 329 329 328 327 327 328 328 331 330 330
302 303 303 303 305 307 306 307 307 307 307 308 310 310 311 313 314 316 318 320 325 324 325 327 330 331 328 326 325 328 327 327 326 325 326 328 328 328 327 328 327 328 330 330 330
Wind_Speed
20 21 21 21 19 18 19 19 19 19 19 18 17 16 16 17 19 21 20 13 21 14 18 17 18 17 18 19 19 13 13 14 18 16 11 9 13 5 3 12 6 6 8 3 5
21 22 23 22 22 20 19 19 20 19 20 20 20 19 18 19 20 25 25 25 19 21 19 24 22 20 22 22 21 17 13 19 14 14 12 19 19 19 8 11 9 10 9 6 8
24 24 24 23 23 23 22 21 20 20 21 19 19 20 20 18 20 23 16 18 23 24 25 25 21 22 24 24 23 21 16 18 16 20 14 17 18 7 9 10 9 5 8 13 12
25 26 26 26 25 24 24 24 23 22 22 20 18 18 18 11 10 3 10 14 22 28 26 30 27 27 26 23 24 20 21 22 20 22 13 14 9 10 9 12 7 7 7 10 13
25 25 25 26 26 25 25 25 24 24 23 22 19 18 16 14 23 16 9 3 8 26 31 32 33 32 26 27 23 17 18 25 23 19 16 14 11 11 13 10 6 7 9 12 14
23 24 24 25 25 25 24 25 25 23 23 23 20 18 15 25 18 17 22 16 7 18 26 30 27 33 28 28 21 25 25 20 19 18 16 11 17 3 12 5 8 11 12 13 16
21 23 23 24 25 25 24 24 23 23 23 22 20 17 17 34 9 11 17 22 23 20 20 28 31 27 29 24 25 24 18 19 19 18 15 12 15 16 18 8 10 13 15 16 16
23 21 22 24 20 20 24 24 21 21 21 21 19 15 21 22 20 29 17 14 15 21 26 20 28 35 27 23 24 19 21 19 20 18 17 10 18 14 14 11 14 16 16 16 16
20 21 20 20 24 19 21 22 19 20 20 17 16 15 25 14 28 32 28 32 26 17 24 23 22 34 26 20 20 18 16 21 19 14 16 16 19 17 13 14 15 17 16 16 17
21 20 22 23 22 23 20 16 15 18 17 11 13 8 25 24 24 21 26 32 26 22 19 23 22 19 19 19 20 19 22 17 17 14 13 16 19 17 14 18 18 18 17 16 19
18 19 20 24 23 20 19 13 9 9 24 22 16 24 7 12 10 13 21 26 29 27 23 30 18 26 33 28 24 23 18 17 11 9 13 13 17 20 17 18 20 19 15 16 18
18 17 17 19 20 19 16 10 8 5 12 32 36 34 28 9 10 22 18 24 29 27 26 21 27 28 28 27 26 23 21 16 15 13 9 13 19 20 19 19 19 17 12 14 16
16 16 14 17 18 21 16 17 10 8 11 27 38 40 39 31 29 22 30 31 25 29 30 31 27 28 27 27 25 23 21 17 18 12 9 14 23 20 7 11 12 11 11 12 17
19 15 12 13 11 10 14 13 10 4 7 19 23 33 38 34 35 35 35 35 21 31 30 28 28 27 30 27 25 22 19 18 14 13 13 14 14 15 17 7 10 14 15 12 15
17 15 12 10 13 6 2 3 5 4 8 8 33 9 29 42 8 40 34 38 30 23 27 31 26 28 27 29 26 20 18 17 14 15 18 19 11 14 10 10 7 5 5 10 15
18 14 13 10 15 17 6 6 5 9 14 9 14 17 22 37 39 12 47 37 32 26 28 31 35 24 27 27 20 20 17 17 11 11 15 19 14 15 10 3 3 5 4 8 14
20 15 17 12 14 12 14 11 8 15 17 14 18 18 26 25 35 27 34 31 28 29 29 28 33 27 22 20 22 23 14 11 13 13 14 17 12 9 13 4 3 5 6 8 13
18 18 18 17 13 13 8 14 16 24 33 3 21 21 28 26 32 33 31 29 34 30 18 23 27 30 23 25 23 22 19 13 15 14 14 11 7 3 5 5 4 3 4 7 15
16 17 15 17 15 13 9 14 21 24 23 32 14 20 26 28 19 31 31 35 34 33 28 24 28 26 26 23 25 19 20 20 22 19 13 6 8 9 7 8 8 2 2 11 19
17 14 17 16 18 14 6 23 27 26 26 22 34 19 22 29 24 34 31 34 35 37 28 16 19 25 28 21 26 23 18 19 15 19 17 13 11 4 11 10 8 7 8 17 20
14 4 6 19 20 12 7 20 28 35 35 16 18 21 26 25 29 24 29 20 35 36 33 30 18 23 25 25 26 21 21 17 15 14 13 11 8 8 6 5 2 8 13 20 22
8 3 8 22 10 6 13 29 27 31 29 18 19 23 24 24 26 30 32 33 27 33 37 32 15 17 29 24 26 26 26 22 11 18 12 12 3 11 7 5 7 4 13 20 22
5 7 6 17 8 14 19 27 29 28 30 26 17 18 23 20 16 28 29 30 20 32 34 27 18 17 22 20 24 27 25 23 19 14 15 12 13 13 12 7 6 7 12 20 23
3 3 6 13 16 11 19 21 23 26 31 20 27 21 21 24 22 15 28 25 24 19 32 25 21 26 21 26 22 25 25 25 23 17 16 16 16 13 11 11 11 9 9 17 24
8 5 9 3 10 14 16 17 19 23 26 26 21 24 24 18 19 22 14 26 20 20 21 26 26 26 26 21 25 23 27 27 28 24 21 18 18 15 11 13 12 15 11 15 22
3 4 4 12 11 13 10 18 22 21 16 23 22 21 19 19 20 18 13 19 22 20 24 23 24 24 26 26 24 27 26 26 27 25 23 21 17 12 9 11 15 13 15 15 21
9 6 5 6 3 8 10 15 10 12 18 21 21 22 24 23 15 31 23 24 16 21 21 24 20 23 23 25 26 23 27 28 25 22 22 21 20 18 12 13 14 13 14 15 19
Wind_Direction
281 278 275 275 277 281 281 283 284 285 287 289 290 287 291 290 288 285 256 236 226 229 209 198 193 206 212 228 233 245 262 264 272 287 307 308 281 275 229 282 230 268 282 312 177
276 276 276 277 275 275 276 276 276 279 283 286 292 294 294 295 291 276 272 255 233 224 212 199 202 211 222 230 234 238 250 262 293 310 305 298 301 304 284 252 233 235 243 229 212
275 273 274 274 276 278 278 277 277 278 279 278 283 289 291 301 302 277 259 254 232 223 212 212 213 217 229 230 233 227 250 274 291 287 293 311 290 294 274 278 307 286 266 204 216
278 276 273 272 270 271 273 274 279 280 280 278 280 279 276 278 257 293 282 242 222 214 211 219 220 222 229 235 231 240 243 273 268 274 276 277 309 293 282 279 312 285 275 219 223
281 278 277 276 274 272 269 268 269 273 276 278 280 283 282 254 243 265 271 189 205 211 213 220 220 222 229 238 247 240 249 254 269 255 265 269 275 277 295 303 271 261 244 233 228
295 286 280 277 277 278 275 274 273 272 272 271 272 272 276 258 257 248 250 244 212 201 217 223 226 227 238 242 240 237 242 258 263 245 258 242 264 222 281 257 247 251 248 237 231
294 297 294 281 274 276 277 277 278 276 272 269 272 272 258 246 248 244 236 230 228 225 227 227 231 231 235 249 246 252 258 260 255 254 247 232 260 248 258 223 255 243 242 237 228
282 291 295 296 286 276 270 269 272 272 271 270 267 268 253 256 256 235 223 223 228 233 232 233 226 238 239 245 253 248 246 253 246 216 229 218 261 263 251 242 252 252 238 240 227
279 279 287 294 296 286 269 268 269 268 267 261 259 233 261 267 231 236 229 236 237 239 221 224 227 229 237 240 234 224 243 242 255 173 228 206 261 291 285 283 269 263 255 237 225
286 286 280 281 290 296 284 276 268 263 259 247 231 236 253 240 237 243 229 221 220 213 213 215 221 218 225 222 230 224 228 231 261 212 211 252 258 261 272 279 269 246 254 233 222
301 299 291 279 277 290 299 315 260 237 209 210 204 210 264 220 216 216 212 206 207 211 212 205 210 209 212 219 229 246 257 253 243 247 250 276 277 285 283 272 272 254 248 237 220
289 299 297 291 277 276 284 247 289 297 277 237 245 238 243 234 234 224 196 194 199 208 206 205 221 215 217 222 231 241 252 255 262 259 268 289 283 290 282 276 268 249 245 228 210
298 291 304 289 280 273 265 237 261 287 259 253 235 234 225 229 233 230 199 199 201 210 204 216 215 220 212 224 222 228 242 244 260 271 243 271 268 258 257 272 248 239 255 226 205
310 288 299 299 284 283 249 256 234 250 268 252 213 237 221 217 236 223 208 203 216 215 212 219 223 210 225 218 223 228 227 247 269 275 266 274 284 294 273 264 256 236 208 213 193
297 286 272 258 273 271 157 208 222 213 259 244 204 197 201 197 176 204 207 207 218 205 211 220 219 217 213 223 219 233 235 239 229 252 270 264 264 273 267 221 251 249 264 163 183
293 284 256 269 253 238 281 265 232 221 233 231 145 188 192 200 215 200 200 208 217 223 220 229 214 223 219 216 218 225 227 254 265 259 257 257 253 266 271 128 303 301 194 175 182
282 272 238 242 252 238 243 225 209 224 213 230 185 192 200 193 200 223 189 199 205 209 217 212 228 211 224 213 213 220 210 229 230 233 248 247 237 284 298 310 327 329 315 157 175
271 258 245 239 244 242 251 214 229 222 224 244 183 199 206 190 201 209 187 202 208 207 204 209 213 214 203 211 209 205 211 224 219 234 247 141 227 263 217 60 264 284 324 157 174
263 251 243 231 222 221 231 224 220 231 215 245 193 205 208 198 195 206 203 206 202 205 221 202 217 203 203 201 220 189 214 225 253 284 289 216 212 198 192 212 199 175 186 162 167
240 237 236 220 210 192 241 230 239 255 278 262 238 228 215 208 203 197 199 211 211 209 215 211 211 218 198 205 218 220 200 217 229 246 261 245 235 244 166 211 117 151 168 162 166
212 201 231 200 190 196 227 231 237 259 268 333 314 294 229 218 204 202 210 207 207 202 216 230 212 201 187 197 206 203 224 204 244 224 237 248 260 119 152 159 323 147 163 173 173
152 222 176 182 189 211 228 228 250 258 261 294 302 290 284 257 216 220 210 211 202 207 204 215 215 226 200 200 209 214 210 207 216 222 249 274 245 112 161 205 184 196 159 180 181
188 237 183 188 221 228 247 247 240 264 258 261 273 293 325 301 291 220 231 219 192 204 199 205 212 218 199 202 202 222 210 217 219 243 235 219 238 183 167 197 196 235 158 180 184
203 251 202 213 234 269 270 268 250 251 254 265 277 282 287 278 265 271 212 223 222 207 203 200 211 211 213 199 192 208 222 205 217 218 230 242 260 155 175 197 213 188 173 186 189
250 253 274 245 240 247 254 281 285 237 254 246 248 259 266 283 257 249 233 220 202 206 208 191 218 208 227 204 200 205 214 216 213 220 223 228 233 246 215 191 216 185 187 186 192
266 247 305 285 260 253 265 261 253 268 221 253 234 245 271 281 272 304 293 256 198 207 205 188 214 215 217 228 203 204 211 222 223 222 223 233 243 225 198 240 195 205 173 199 197
240 242 277 278 274 270 234 267 294 304 285 241 261 241 244 254 342 313 320 306 302 210 198 186 209 212 220 214 227 223 207 212 221 224 225 225 229 245 233 209 230 205 184 205 202